Simultaneous Nadir Overpasses (SNOs) Predictions

Prediction of SNOs between GOES-15 and NOAA-20 Satellite Orbit:

Table of predicted SNOs for the next 14.0 days since TLE Epoch: 10/2/2020
Index Date Time (GOES-15) GOES-15 Lat,Lon NOAA-20 Lat,Lon Distance(km) Time Diff (sec)
1 10/02/2020 21:55:21 0.13,-128.41 0.24,-128.06 40.92 80
2 10/05/2020 09:58:26 -0.13,-128.45 -0.07,-128.81 40.43 80
3 10/06/2020 09:42:21 -0.13,-128.45 -1.06,-124.27 475.68 80
4 10/07/2020 22:04:18 0.13,-128.42 -0.14,-129.58 132.83 80
5 10/08/2020 21:42:55 0.14,-128.41 0.90,-125.06 382.50 80
6 10/10/2020 10:04:43 -0.14,-128.43 0.30,-130.33 216.72 80
7 10/11/2020 09:48:40 -0.14,-128.42 -0.74,-125.81 298.41 80
8 10/12/2020 22:10:37 0.14,-128.38 -0.45,-131.11 310.82 80
9 10/13/2020 21:49:13 0.15,-128.37 0.53,-126.58 203.88 80
10 10/15/2020 10:11:02 -0.14,-128.38 0.61,-131.86 396.40 80
11 10/16/2020 09:54:57 -0.14,-128.37 -0.37,-127.33 118.33 80
